• In Hungary
  • List of Countries
  • For 7 days
  • Water Temperature
  • Satellite Maps
  • Weather Map
  • News
  • Weather Widgets
  • user-avatar
    Login

    Hourly Weather Barabanove

    Today, 23 January, Tuesday

    Time Temperature Precipitation Wind Pressure Humidity
    00:00 -2°C° 1.1 mm 5 mps 711 mmHg 96%
    01:00 -4°C° 1.1 mm 5 mps 711 mmHg 96%
    02:00 -4°C° 0 mm 5 mps 711 mmHg 93%
    03:00 -5°C° 0.7 mm 5 mps 712 mmHg 93%
    04:00 -5°C° 0.7 mm 6 mps 712 mmHg 93%
    05:00 -6°C° 0.7 mm 6 mps 713 mmHg 94%
    06:00 -6°C° 0.4 mm 6 mps 713 mmHg 93%
    07:00 -8°C° 0.4 mm 6 mps 713 mmHg 93%
    08:00 -8°C° 0.4 mm 6 mps 714 mmHg 92%
    09:00 -8°C° 0.1 mm 6 mps 714 mmHg 92%
    10:00 -6°C° 0.1 mm 6 mps 715 mmHg 91%
    11:00 -6°C° 0.1 mm 6 mps 715 mmHg 90%
    12:00 -6°C° 0.1 mm 6 mps 716 mmHg 90%
    13:00 -6°C° 0.1 mm 6 mps 716 mmHg 90%
    14:00 -6°C° 0.1 mm 6 mps 717 mmHg 89%
    15:00 -6°C° 0.1 mm 6 mps 718 mmHg 89%
    16:00 -6°C° 0.1 mm 6 mps 718 mmHg 90%
    17:00 -6°C° 0.1 mm 6 mps 719 mmHg 90%
    18:00 -6°C° 0.1 mm 6 mps 720 mmHg 90%
    19:00 -8°C° 0.1 mm 6 mps 720 mmHg 90%
    20:00 -8°C° 0.1 mm 6 mps 721 mmHg 91%
    21:00 -8°C° 0.1 mm 6 mps 721 mmHg 90%
    22:00 -8°C° 0.1 mm 6 mps 722 mmHg 90%
    23:00 -9°C° 0.1 mm 6 mps 722 mmHg 89%

    Tomorrow, 24 January, Wednesday

    Time Temperature Precipitation Wind Pressure Humidity
    00:00 -9°C° 0.1 mm 6 mps 723 mmHg 89%
    01:00 -9°C° 0.1 mm 6 mps 723 mmHg 89%
    02:00 -9°C° 0.1 mm 6 mps 724 mmHg 89%
    03:00 -9°C° 0.1 mm 6 mps 724 mmHg 89%
    04:00 -9°C° 0.1 mm 6 mps 725 mmHg 89%
    05:00 -10°C° 0.1 mm 6 mps 725 mmHg 89%
    06:00 -10°C° 0.1 mm 6 mps 725 mmHg 89%
    07:00 -10°C° 0.1 mm 6 mps 726 mmHg 89%
    08:00 -10°C° 0.1 mm 6 mps 726 mmHg 89%
    09:00 -10°C° 0.1 mm 6 mps 727 mmHg 88%
    10:00 -10°C° 0.1 mm 6 mps 727 mmHg 87%
    11:00 -10°C° 0.1 mm 6 mps 728 mmHg 86%
    12:00 -10°C° 0.1 mm 6 mps 728 mmHg 85%
    13:00 -10°C° 0.1 mm 6 mps 728 mmHg 84%
    14:00 -10°C° 0.1 mm 6 mps 728 mmHg 83%
    15:00 -10°C° 0.1 mm 6 mps 729 mmHg 84%
    16:00 -10°C° 0.1 mm 5 mps 729 mmHg 85%
    17:00 -11°C° 0.1 mm 5 mps 729 mmHg 86%
    18:00 -11°C° 0 mm 5 mps 730 mmHg 86%
    19:00 -11°C° 0 mm 5 mps 730 mmHg 87%
    20:00 -12°C° 0 mm 5 mps 730 mmHg 88%
    21:00 -12°C° 0 mm 5 mps 730 mmHg 88%
    22:00 -12°C° 0 mm 5 mps 730 mmHg 89%
    23:00 -11°C° 0 mm 4 mps 731 mmHg 89%

    Day after tomorrow, 25 January, Thursday

    Time Temperature Precipitation Wind Pressure Humidity
    00:00 -11°C° 0 mm 4 mps 730 mmHg 89%
    01:00 -12°C° 0 mm 4 mps 730 mmHg 89%
    02:00 -12°C° 0 mm 4 mps 730 mmHg 89%
    03:00 -12°C° 0 mm 4 mps 730 mmHg 89%
    04:00 -12°C° 0 mm 4 mps 730 mmHg 89%
    05:00 -12°C° 0 mm 4 mps 730 mmHg 89%
    06:00 -12°C° 0 mm 4 mps 730 mmHg 89%
    07:00 -12°C° 0 mm 4 mps 730 mmHg 89%
    08:00 -13°C° 0 mm 5 mps 731 mmHg 89%
    09:00 -12°C° 0 mm 5 mps 731 mmHg 87%
    10:00 -12°C° 0 mm 5 mps 731 mmHg 84%
    11:00 -11°C° 0 mm 5 mps 731 mmHg 82%
    12:00 -11°C° 0 mm 5 mps 730 mmHg 82%
    13:00 -11°C° 0 mm 5 mps 730 mmHg 82%
    14:00 -10°C° 0 mm 5 mps 730 mmHg 82%
    15:00 -11°C° 0 mm 5 mps 729 mmHg 84%
    16:00 -11°C° 0 mm 5 mps 729 mmHg 86%
    17:00 -12°C° 0 mm 5 mps 729 mmHg 88%
    18:00 -11°C° 0 mm 5 mps 729 mmHg 88%
    19:00 -11°C° 0 mm 5 mps 729 mmHg 89%
    20:00 -11°C° 0 mm 5 mps 729 mmHg 89%
    21:00 -11°C° 0 mm 5 mps 729 mmHg 90%
    22:00 -10°C° 0 mm 5 mps 729 mmHg 91%
    23:00 -10°C° 0 mm 5 mps 729 mmHg 91%

    26 January, Friday

    Time Temperature Precipitation Wind Pressure Humidity
    00:00 -10°C° 0 mm 5 mps 728 mmHg 91%
    01:00 -10°C° 0 mm 5 mps 728 mmHg 92%
    02:00 -10°C° 0 mm 5 mps 728 mmHg 92%
    03:00 -8°C° 0 mm 5 mps 728 mmHg 92%
    04:00 -8°C° 0 mm 5 mps 728 mmHg 92%
    05:00 -8°C° 0 mm 5 mps 728 mmHg 92%
    06:00 -8°C° 0 mm 5 mps 728 mmHg 93%
    07:00 -8°C° 0 mm 5 mps 728 mmHg 93%
    08:00 -7°C° 0 mm 5 mps 728 mmHg 93%
    09:00 -6°C° 0 mm 5 mps 728 mmHg 92%
    10:00 -6°C° 0 mm 5 mps 728 mmHg 90%
    11:00 -5°C° 0 mm 5 mps 728 mmHg 88%
    12:00 -5°C° 0 mm 5 mps 728 mmHg 88%
    13:00 -5°C° 0 mm 5 mps 728 mmHg 88%
    14:00 -5°C° 0 mm 5 mps 727 mmHg 89%
    15:00 -5°C° 0 mm 5 mps 728 mmHg 90%
    16:00 -5°C° 0 mm 5 mps 728 mmHg 91%
    17:00 -6°C° 0 mm 5 mps 728 mmHg 92%
    18:00 -6°C° 0 mm 5 mps 728 mmHg 92%
    19:00 -6°C° 0 mm 5 mps 728 mmHg 93%
    20:00 -6°C° 0 mm 5 mps 728 mmHg 93%
    21:00 -7°C° 0 mm 4 mps 728 mmHg 93%
    22:00 -7°C° 0 mm 4 mps 728 mmHg 94%
    23:00 -7°C° 0 mm 4 mps 728 mmHg 94%

    27 January, Saturday

    Time Temperature Precipitation Wind Pressure Humidity
    00:00 -7°C° 0 mm 4 mps 728 mmHg 94%
    01:00 -7°C° 0 mm 4 mps 728 mmHg 93%
    02:00 -7°C° 0 mm 4 mps 728 mmHg 93%
    03:00 -7°C° 0 mm 4 mps 728 mmHg 93%
    04:00 -7°C° 0 mm 4 mps 728 mmHg 94%
    05:00 -7°C° 0 mm 4 mps 728 mmHg 94%
    06:00 -7°C° 0 mm 4 mps 728 mmHg 93%
    07:00 -7°C° 0 mm 4 mps 729 mmHg 93%
    08:00 -7°C° 0 mm 4 mps 729 mmHg 93%
    09:00 -5°C° 0 mm 4 mps 729 mmHg 91%
    10:00 -5°C° 0 mm 4 mps 729 mmHg 89%
    11:00 -4°C° 0 mm 4 mps 729 mmHg 88%
    12:00 -4°C° 0 mm 4 mps 729 mmHg 87%
    13:00 -4°C° 0 mm 4 mps 730 mmHg 87%
    14:00 -4°C° 0 mm 4 mps 730 mmHg 87%
    15:00 -4°C° 0 mm 4 mps 730 mmHg 88%
    16:00 -5°C° 0 mm 4 mps 730 mmHg 90%
    17:00 -5°C° 0 mm 4 mps 730 mmHg 92%
    18:00 -5°C° 0 mm 3 mps 730 mmHg 93%
    19:00 -5°C° 0 mm 3 mps 731 mmHg 93%
    20:00 -6°C° 0 mm 3 mps 731 mmHg 94%
    21:00 -6°C° 0 mm 3 mps 731 mmHg 94%
    22:00 -5°C° 0 mm 2 mps 731 mmHg 95%
    23:00 -5°C° 0 mm 2 mps 731 mmHg 95%

    28 January, Sunday

    Time Temperature Precipitation Wind Pressure Humidity
    00:00 -5°C° 0 mm 2 mps 731 mmHg 95%
    01:00 -5°C° 0 mm 2 mps 731 mmHg 95%
    02:00 -5°C° 0 mm 2 mps 731 mmHg 95%
    03:00 -5°C° 0 mm 2 mps 731 mmHg 95%
    04:00 -5°C° 0 mm 2 mps 731 mmHg 95%
    05:00 -5°C° 0 mm 2 mps 731 mmHg 95%
    06:00 -5°C° 0 mm 2 mps 732 mmHg 95%
    07:00 -5°C° 0 mm 2 mps 732 mmHg 95%
    08:00 -5°C° 0 mm 2 mps 732 mmHg 95%
    09:00 -4°C° 0 mm 2 mps 732 mmHg 93%
    10:00 -3°C° 0 mm 2 mps 733 mmHg 91%
    11:00 -3°C° 0 mm 2 mps 733 mmHg 89%
    12:00 -2°C° 0 mm 2 mps 733 mmHg 89%
    13:00 -2°C° 0 mm 2 mps 732 mmHg 88%
    14:00 -2°C° 0 mm 2 mps 732 mmHg 87%
    15:00 -3°C° 0 mm 2 mps 732 mmHg 88%
    16:00 -3°C° 0 mm 2 mps 732 mmHg 90%
    17:00 -4°C° 0 mm 2 mps 732 mmHg 92%
    18:00 -4°C° 0 mm 2 mps 732 mmHg 92%
    19:00 -2°C° 0 mm 1 mps 732 mmHg 93%
    20:00 -3°C° 0 mm 1 mps 731 mmHg 94%
    21:00 -3°C° 0 mm 1 mps 731 mmHg 93%
    22:00 -3°C° 0 mm 1 mps 731 mmHg 93%
    23:00 -3°C° 0 mm 1 mps 731 mmHg 93%
    Show more